Lapse_Rate
7.1 7.0 7.0 7.2 7.2 7.3 7.1 6.7 6.5 6.1 6.0 6.5 6.5 6.5 6.5 6.7 6.5 6.8 6.5 6.5 6.5 6.5 6.5 6.5 6.5 6.5 6.5 6.1 6.5 6.5 6.5 6.5 6.5 6.5 6.5 6.5 6.5 6.5 6.5 6.5 6.5 6.5 6.5 6.5
7.2 7.4 7.3 7.3 7.4 7.3 6.9 6.5 6.3 6.2 6.6 6.5 6.5 6.5 6.5 6.5 6.5 6.5 6.5 6.5 6.5 6.5 6.5 6.5 6.5 6.5 6.4 5.8 6.5 6.5 6.5 6.5 6.5 6.5 6.5 6.5 6.5 6.5 6.5 6.5 6.5 6.5 6.5 6.5
7.1 7.2 7.4 7.6 7.4 7.3 6.8 6.3 6.5 6.1 6.6 6.4 6.5 6.5 6.5 6.5 6.7 6.5 6.5 6.5 6.5 6.5 6.5 6.5 6.5 6.5 6.5 6.2 6.5 4.8 6.1 6.5 6.5 6.5 6.5 6.5 6.5 6.5 6.5 6.5 6.5 6.5 6.5 6.5
6.9 7.1 7.0 7.2 7.5 7.7 7.0 6.4 6.4 6.2 6.5 6.5 6.5 6.5 6.5 6.5 6.5 6.5 6.5 6.5 6.5 6.5 6.5 6.5 6.5 6.5 6.5 6.5 6.2 6.5 6.5 6.5 6.5 6.5 6.5 6.5 6.5 6.5 6.5 6.5 6.5 6.5 6.5 6.5
6.4 7.0 7.1 6.8 6.8 7.6 6.8 6.2 6.3 6.5 6.5 6.4 6.5 6.5 6.5 6.5 6.5 6.5 6.5 6.5 6.5 6.5 6.5 6.5 6.5 6.5 6.5 6.5 6.5 6.5 6.5 6.5 6.5 6.5 6.5 6.5 6.5 6.5 6.5 6.5 6.5 6.5 6.5 6.5
6.4 6.7 6.8 7.3 6.8 7.1 6.5 6.3 6.1 5.7 6.5 6.5 6.5 6.5 6.5 6.5 6.5 6.5 6.5 6.5 6.5 6.5 6.5 6.3 6.2 6.1 6.3 6.5 6.5 6.5 6.5 6.5 6.5 6.5 6.5 6.5 6.5 6.5 6.5 6.5 6.5 6.5 6.5 6.5
6.6 6.9 7.1 7.0 6.7 6.9 5.5 6.0 6.4 6.0 6.5 6.5 6.5 6.5 6.5 6.5 6.5 6.5 6.5 6.4 6.5 6.1 3.2 4.8 5.6 5.9 6.5 6.5 6.5 6.5 6.5 6.5 6.5 6.5 6.5 6.5 6.5 6.5 6.5 6.5 6.5 6.5 6.5 6.5
6.6 6.8 7.1 7.1 7.0 7.6 6.0 6.5 6.0 3.5 6.5 6.5 6.5 6.5 6.5 6.5 6.3 6.5 6.5 6.4 6.2 4.9 5.3 6.5 6.5 6.5 6.5 6.5 6.5 6.5 6.5 6.5 6.5 6.5 6.5 6.5 6.5 6.5 6.5 6.5 6.5 6.5 6.5 6.5
6.5 6.4 6.7 6.6 7.2 7.3 6.8 6.0 3.9 2.8 6.4 6.5 6.3 6.5 6.5 6.5 6.5 6.5 6.5 6.5 4.9 4.8 6.5 6.5 6.5 6.5 6.5 6.5 6.5 6.5 6.5 6.5 6.5 6.5 6.5 6.5 6.5 6.5 6.2 6.5 6.5 6.5 6.5 6.5
6.4 6.7 6.3 6.5 7.1 6.1 7.2 3.5 2.1 1.9 6.1 5.9 5.9 6.5 6.5 6.0 6.3 6.5 6.5 6.4 6.2 5.4 6.5 6.5 6.5 6.5 6.5 6.5 6.5 6.5 6.5 6.5 6.5 6.5 6.5 6.5 6.5 6.5 5.8 6.5 6.5 6.5 6.2 6.1
6.4 6.5 6.1 6.4 6.5 7.3 8.2 2.8 1.1 2.4 4.7 4.7 4.2 4.0 4.4 5.3 6.2 6.5 6.2 6.3 6.0 6.5 6.5 6.5 6.5 6.5 6.5 6.5 6.5 6.5 6.5 6.5 6.5 6.5 6.5 6.5 6.4 6.4 6.5 6.5 5.7 5.7 5.3 4.6
6.2 6.2 6.7 6.8 8.0 8.3 6.5 3.8 1.2 1.0 1.1 3.8 3.9 4.2 4.7 4.6 4.1 5.7 5.9 6.5 6.5 6.6 6.5 6.5 6.5 6.5 6.5 6.5 6.5 6.5 6.5 6.5 6.5 6.5 6.5 6.5 5.7 6.4 4.8 3.7 4.5 4.1 3.0 2.1
6.4 6.8 6.6 7.0 7.4 7.8 5.2 3.4 1.4 1.4 3.4 5.0 5.2 5.2 3.4 4.2 4.8 6.0 6.4 5.7 5.4 5.7 4.5 6.4 6.5 6.5 6.5 6.5 6.5 6.5 6.5 6.5 6.5 6.5 6.5 6.5 5.9 4.7 3.8 3.1 3.3 1.4 0.4 1.1
6.1 6.1 6.9 7.6 7.7 6.9 5.0 3.5 2.0 2.6 2.8 6.5 6.2 5.8 5.6 4.7 4.1 6.1 6.4 5.7 4.5 4.1 4.2 6.5 6.5 6.5 6.5 6.5 6.5 6.5 6.5 6.5 6.5 6.5 6.5 6.5 5.8 4.7 3.1 1.7 0.9 1.4 3.3 3.2
5.9 6.7 6.6 6.9 7.3 5.9 3.9 3.3 2.7 3.1 3.6 6.5 6.4 6.1 5.9 5.9 6.0 6.0 6.4 6.7 5.5 5.6 6.3 6.5 6.5 6.5 6.5 6.5 6.5 6.5 6.5 6.5 6.5 6.5 6.5 6.3 5.7 2.1 2.6 1.5 1.7 2.5 2.5 5.1
6.5 6.0 5.6 6.5 5.9 6.5 5.5 5.8 5.2 4.0 4.4 4.4 6.5 5.8 6.2 6.4 6.5 6.4 6.9 6.7 5.0 5.0 6.3 6.5 6.4 5.9 6.5 6.5 6.5 6.5 6.0 5.2 5.3 6.5 4.3 4.8 2.9 2.4 3.7 3.6 3.7 4.1 3.9 2.9
6.5 6.3 6.4 6.3 5.9 5.0 5.1 5.8 5.2 4.8 4.9 4.1 6.5 6.5 6.1 6.2 5.5 5.0 5.3 5.0 5.3 5.7 6.2 6.5 6.5 6.5 6.2 6.5 6.5 6.5 5.6 5.6 5.0 3.7 3.2 5.5 4.1 4.0 5.0 4.4 5.3 5.0 4.0 4.2
6.5 6.1 6.0 6.3 6.0 5.2 4.5 5.9 5.2 4.7 3.5 4.9 6.5 6.5 6.5 6.0 6.4 6.6 5.3 6.2 5.7 6.0 6.5 6.4 6.5 6.5 6.5 6.5 6.5 5.8 5.6 5.6 5.0 4.3 3.9 2.2 4.0 5.1 5.4 5.1 4.9 4.3 4.1 3.3
5.2 5.3 4.9 4.6 4.1 4.5 5.9 5.9 5.1 4.1 5.0 6.5 6.5 6.5 6.5 6.1 6.8 6.6 6.0 6.3 6.5 6.1 6.5 6.5 6.5 6.5 6.5 6.5 6.5 6.2 5.4 5.2 4.8 4.2 3.2 4.0 4.5 5.5 5.7 5.5 5.2 3.7 3.6 2.9
5.6 5.1 4.9 6.3 6.2 6.5 6.5 5.2 5.7 5.6 5.4 5.9 6.5 5.7 6.5 6.5 6.4 6.5 6.5 6.5 6.5 6.5 6.5 6.7 6.5 6.5 6.3 5.6 5.7 5.3 4.9 4.4 4.4 4.5 6.0 6.1 6.4 5.9 5.5 5.0 3.5 3.2 2.9 2.3
4.9 5.5 6.4 6.1 6.2 5.9 5.1 6.5 6.5 6.6 6.5 6.4 6.4 6.4 6.5 6.1 6.5 6.5 6.2 6.5 6.5 6.5 6.5 6.5 6.5 6.5 6.5 4.5 4.5 4.4 3.6 4.1 4.4 3.6 3.5 3.9 3.2 3.7 4.2 4.5 2.5 2.0 2.2 2.1
5.2 5.4 5.9 6.2 5.8 5.9 6.4 6.5 6.5 6.5 6.5 6.6 6.5 6.5 6.7 6.5 5.4 6.4 6.5 6.5 6.5 6.5 6.5 6.5 6.5 6.5 5.6 4.9 4.5 3.9 3.6 3.5 3.8 3.0 2.9 3.2 3.4 3.4 3.2 2.4 2.3 2.4 1.9 1.2
5.9 5.9 5.1 5.6 5.9 6.5 6.5 6.5 6.5 6.5 6.5 6.7 6.5 6.5 6.2 6.2 6.1 6.5 6.5 6.5 6.5 6.5 6.5 6.5 6.5 6.6 5.7 4.7 4.3 4.3 3.4 2.8 2.2 2.8 2.6 2.1 2.2 2.4 2.1 1.9 1.4 1.2 1.3 0.8
4.2 5.9 6.5 6.5 6.5 6.5 6.5 6.5 6.5 5.5 6.1 6.6 6.0 6.5 6.4 6.0 6.5 6.5 6.5 6.5 6.5 6.5 6.5 6.5 6.5 5.9 5.2 4.6 4.1 3.6 2.8 1.6 1.1 1.4 1.9 2.0 2.4 1.7 0.3 0.4 0.4 0.5 -0.1 -2.3
4.4 5.9 6.5 6.5 6.4 6.2 6.3 6.3 6.4 6.4 6.9 6.1 6.4 6.4 6.4 6.5 6.5 6.5 6.5 6.5 6.5 6.5 6.5 6.5 6.0 5.3 4.4 3.9 2.5 2.0 1.4 0.6 0.8 1.1 0.6 0.6 0.7 0.1 -1.2 -1.4 -0.8 -1.1 -2.3 -2.6
4.6 5.9 6.5 6.5 6.5 6.5 6.5 6.5 6.6 6.6 6.3 6.2 6.2 6.5 6.5 6.5 6.5 6.5 6.5 6.5 6.5 6.5 6.5 5.7 5.3 4.5 3.0 2.7 1.7 0.7 0.7 0.4 -0.2 -0.1 -0.2 -0.8 -0.5 -0.6 -1.7 -2.0 -1.5 -1.1 -0.3 -0.3
6.3 6.5 4.8 5.8 6.0 6.5 6.6 6.6 6.1 5.6 6.3 6.5 6.5 6.5 6.5 6.5 6.5 6.5 6.5 6.5 6.5 6.5 5.9 4.1 4.1 3.5 2.3 1.2 0.5 -0.2 0.2 0.1 -0.3 -1.1 -1.3 -1.1 -1.0 -1.2 -0.8 -0.5 0.1 0.3 0.4 0.0
Wind_Speed
27 27 27 28 27 28 21 11 12 8 16 13 10 15 6 10 18 21 14 8 17 6 13 20 16 23 24 15 27 33 27 5 4 14 3 14 27 26 21 7 4 4 6 21
30 31 31 30 30 29 13 9 11 10 17 14 13 15 18 10 17 16 14 8 11 21 5 6 23 13 14 9 25 26 19 6 2 5 6 3 16 13 16 12 2 17 7 5
32 34 34 35 34 34 15 7 7 4 15 12 18 21 21 22 20 15 20 5 7 4 12 5 10 13 5 4 22 13 19 9 26 22 12 9 8 19 20 19 15 13 28 16
33 35 37 38 39 38 18 11 5 8 9 16 23 23 12 16 18 20 12 12 13 6 15 1 7 9 4 3 3 17 19 24 15 18 1 18 11 13 21 29 26 17 20 27
31 31 35 40 41 42 19 10 6 5 5 20 23 26 22 23 19 16 27 19 24 13 5 9 3 3 5 7 2 19 7 4 6 9 16 11 10 17 21 24 24 27 23 23
23 23 24 33 42 38 9 8 3 10 12 19 21 24 28 24 16 22 22 28 23 20 14 1 2 2 3 1 8 12 14 6 4 16 6 3 13 29 23 21 24 21 25 18
24 24 27 26 33 45 3 11 10 8 10 15 21 26 21 25 21 22 26 23 23 10 10 6 2 3 6 5 4 1 7 9 3 2 8 11 9 9 24 26 25 22 24 9
23 22 24 28 30 46 7 11 10 4 6 16 18 22 24 15 20 17 22 18 15 10 5 4 3 1 2 1 4 2 3 9 4 5 10 5 10 5 7 13 25 27 21 9
18 19 19 28 34 42 13 9 3 5 8 13 14 18 16 14 14 17 14 13 10 10 3 3 7 5 4 6 4 5 4 6 10 4 7 12 1 8 7 4 19 9 15 12
14 9 15 29 38 34 15 3 1 5 5 1 10 8 14 11 9 7 9 14 6 6 6 3 4 4 3 7 10 6 4 5 15 6 5 7 6 4 5 11 5 5 18 14
14 15 20 36 32 33 16 3 3 5 3 1 3 3 4 6 11 14 4 7 6 3 7 7 4 4 6 3 4 5 8 8 3 2 1 11 6 4 9 5 2 2 3 6
19 26 32 34 27 20 12 4 3 4 5 3 2 3 2 3 4 7 4 5 5 6 4 3 3 2 3 5 5 3 3 5 6 8 6 2 4 2 1 2 3 4 6 5
13 23 26 25 23 18 9 3 3 4 3 3 2 2 3 3 5 1 9 3 3 4 3 3 3 3 4 5 4 4 2 1 3 3 5 7 4 2 2 2 1 3 5 11
12 22 32 29 17 16 9 4 0 6 3 3 1 2 3 3 3 8 6 0 3 2 2 3 3 3 3 2 2 3 3 8 6 4 3 2 4 6 5 5 9 12 8 10
10 19 21 22 14 16 10 5 4 2 4 3 3 3 2 5 7 11 6 8 4 2 2 2 3 3 4 2 1 3 5 6 6 7 9 7 6 7 5 9 9 14 19 14
13 14 10 24 24 21 5 2 2 1 4 4 2 0 2 3 2 1 9 6 2 0 2 2 2 2 4 4 4 5 11 6 3 5 5 3 5 8 7 7 12 12 14 18
18 20 18 13 16 7 3 3 4 4 2 3 2 1 2 0 3 2 2 3 1 1 2 2 3 2 5 3 4 4 10 10 5 9 11 5 7 7 9 11 11 12 13 12
18 21 22 23 24 11 4 2 7 3 5 3 2 2 2 1 2 2 1 2 2 3 2 1 3 3 1 3 5 4 5 8 7 10 2 7 8 13 13 13 15 15 13 13
21 20 18 6 5 2 2 12 11 4 3 3 2 3 2 2 2 1 2 2 2 1 1 0 1 2 4 5 4 5 6 8 9 6 9 14 16 16 16 15 14 17 11 11
12 7 3 2 2 13 3 4 2 3 2 1 2 0 2 2 1 2 2 0 1 1 0 2 0 3 4 4 4 4 6 8 14 14 9 13 14 15 16 14 13 15 13 11
2 2 2 2 2 1 3 3 3 2 1 2 2 3 3 1 2 2 2 1 2 1 1 2 1 3 4 8 7 6 6 11 12 12 13 17 19 17 15 11 9 12 12 11
4 7 4 1 2 2 3 1 2 2 2 3 2 2 3 2 2 3 2 2 1 3 2 3 3 4 4 6 6 6 7 8 9 13 14 12 14 15 13 13 12 11 9 9
2 3 3 2 2 5 4 4 2 2 3 4 3 3 2 2 2 2 2 2 3 3 1 3 4 3 2 5 6 9 9 10 10 10 8 12 11 10 15 12 8 10 9 7
2 3 2 3 1 3 2 1 3 2 3 6 3 2 3 2 2 3 4 2 3 2 2 5 2 5 5 5 5 11 8 10 12 11 11 12 12 10 8 9 9 10 8 5
2 3 2 2 0 1 1 2 3 2 5 5 3 2 2 1 3 2 4 2 4 5 4 3 2 5 7 8 8 11 10 10 10 10 10 10 11 11 10 6 7 9 9 8
2 3 2 1 2 1 1 4 4 2 3 2 3 2 1 1 2 2 3 4 5 4 3 1 3 5 7 8 8 8 9 11 10 9 9 9 10 12 10 9 10 9 10 10
2 2 1 2 1 2 1 2 2 2 1 2 2 3 1 2 1 2 3 3 2 2 1 3 3 7 9 9 10 10 11 11 11 11 10 12 11 12 12 12 6 9 9 9
Wind_Direction
247 242 233 227 217 210 199 207 223 158 161 203 197 207 198 207 226 217 228 282 228 235 195 205 196 217 205 203 184 195 205 133 178 206 297 217 207 213 203 205 228 239 245 252
249 239 230 221 214 199 200 212 209 173 177 212 198 196 214 220 234 225 227 243 225 223 244 207 215 212 224 186 186 190 182 192 97 320 300 228 209 212 210 219 80 224 207 244
250 239 230 220 211 200 190 207 195 208 197 207 187 193 215 209 219 250 204 247 272 209 214 253 215 222 177 213 195 173 173 190 209 217 235 162 188 202 210 208 227 220 236 250
256 245 230 218 208 195 188 197 194 177 197 193 185 193 217 209 213 215 221 222 248 209 214 192 233 197 147 28 231 180 182 220 213 231 223 199 189 192 200 216 222 211 243 242
253 247 234 220 207 193 197 196 174 159 179 184 188 195 208 207 199 217 219 222 217 234 236 194 265 179 201 176 62 190 190 241 146 215 218 219 235 224 217 219 222 241 250 253
247 243 232 223 204 185 184 174 180 157 172 186 185 196 208 210 205 214 220 219 214 222 222 118 73 217 332 191 154 177 182 130 130 224 168 172 252 228 225 227 228 227 233 244
238 235 230 220 214 185 124 175 160 163 168 187 192 196 199 208 211 225 220 220 204 227 127 102 83 25 43 56 43 60 152 164 121 191 138 216 250 204 223 229 237 233 244 207
236 229 227 206 205 188 162 161 168 139 151 180 202 208 193 198 217 235 238 214 215 150 109 107 187 256 105 231 131 224 99 173 169 190 200 298 263 209 159 189 238 231 234 195
221 230 236 214 188 181 155 153 151 149 142 193 184 190 189 193 209 232 260 244 192 145 125 139 203 182 162 176 187 179 130 212 203 169 202 224 3 190 178 105 264 178 188 178
214 248 232 201 167 156 161 123 95 99 127 63 174 174 195 192 191 222 213 206 257 185 165 170 175 192 194 167 171 152 133 150 210 189 226 280 232 179 143 170 257 216 183 171
203 160 120 135 140 154 162 107 352 119 89 46 40 73 122 171 194 210 185 200 200 283 156 184 179 167 199 138 145 170 161 154 171 148 161 253 154 85 173 220 30 51 163 163
129 134 136 135 143 135 113 84 347 61 85 140 68 92 107 114 348 235 218 267 161 187 128 145 134 140 147 158 193 180 183 175 170 189 206 266 245 195 182 204 175 162 125 115
145 160 152 145 140 132 101 116 183 71 92 56 72 159 59 343 189 284 229 252 261 185 146 126 124 166 152 171 204 86 238 174 151 109 239 230 221 253 215 165 106 91 115 130
142 158 164 163 141 103 97 108 323 86 87 121 151 129 164 263 233 194 241 278 288 51 83 107 150 133 195 177 142 139 175 152 166 254 262 7 277 232 179 126 112 105 101 128
107 162 168 178 147 110 78 71 28 88 126 157 141 110 206 255 256 234 178 203 168 205 121 118 148 127 137 68 86 208 190 171 182 212 179 184 209 194 143 141 143 137 128 124
133 110 108 154 128 124 96 80 325 29 105 123 138 218 227 270 231 275 221 220 138 39 107 135 161 129 132 160 197 222 194 205 202 204 168 124 97 125 142 142 150 140 134 134
147 145 140 130 107 71 95 182 145 140 190 89 27 71 149 230 101 79 52 18 70 98 98 129 135 151 159 161 207 217 200 206 169 128 104 68 163 171 150 131 130 118 115 120
140 134 125 109 97 73 30 18 61 91 84 79 120 286 192 341 88 94 358 60 29 32 68 260 128 128 138 203 219 233 182 153 156 179 138 164 135 126 127 127 127 120 120 119
78 95 93 67 41 82 137 94 66 52 89 123 124 175 199 100 73 92 54 29 58 342 62 306 98 136 212 222 186 200 190 174 177 141 125 135 140 140 137 136 136 123 129 128
56 39 57 75 65 112 74 27 50 40 42 67 123 262 108 90 65 81 130 56 96 175 154 121 148 246 248 237 209 224 199 163 137 122 130 138 140 143 143 155 145 150 152 141
62 66 53 81 260 65 45 78 97 147 57 152 166 166 129 66 145 85 34 67 36 54 222 188 181 267 236 193 193 211 173 159 174 160 159 160 155 154 149 139 129 130 138 149
132 111 126 163 55 64 88 117 166 178 177 132 128 111 107 100 85 103 141 117 127 244 135 69 266 255 239 158 153 139 136 141 133 144 147 146 150 149 141 136 135 142 132 128
72 55 64 56 340 52 135 192 211 159 162 161 147 134 128 118 96 88 111 134 205 106 114 221 225 259 214 142 123 113 105 102 100 99 107 119 113 118 132 127 128 129 123 134
86 123 139 171 224 246 184 186 170 205 125 133 116 119 127 135 129 152 149 143 158 193 227 234 235 204 143 118 113 114 104 105 105 108 112 114 117 104 94 115 129 128 124 107
79 69 159 200 57 100 207 165 118 102 122 112 115 70 85 107 135 186 106 97 213 205 229 236 248 130 118 109 94 103 107 107 104 116 112 108 108 105 88 73 98 102 103 104
69 64 68 64 105 66 97 111 101 65 108 96 65 96 84 110 110 110 211 159 222 234 221 266 101 100 98 99 98 102 104 100 98 95 103 102 107 110 102 83 83 91 108 111
44 48 60 92 85 83 57 95 79 139 126 117 163 108 136 100 140 200 193 208 284 319 17 32 66 113 117 111 102 94 102 98 98 98 91 97 101 108 106 104 96 106 110 111